When you browse on this site, cookies collect data to enhance your experience and personalize the content and advertising you see.
Visit our Privacy Policy to learn more. By continuing to use the site, you agree to this use of cookies and data.
  • In Hungary
  • List of Countries
  • For 7 days
  • Water Temperature
  • Satellite Maps
  • Weather Map
  • News
  • Weather Widgets
  • user-avatar
    Login

    Hourly Weather Karlovka

    Today, 22 April, Monday

    Time Temperature Precipitation Wind Pressure Humidity
    00:00 +8°C° 0 mm 2 mps 755 mmHg 48%
    01:00 +8°C° 0 mm 2 mps 756 mmHg 50%
    02:00 +8°C° 0 mm 2 mps 756 mmHg 49%
    03:00 +7°C° 0 mm 2 mps 756 mmHg 51%
    04:00 +7°C° 0 mm 2 mps 756 mmHg 52%
    05:00 +5°C° 0 mm 3 mps 756 mmHg 54%
    06:00 +8°C° 0 mm 3 mps 756 mmHg 51%
    07:00 +10°C° 0 mm 3 mps 756 mmHg 48%
    08:00 +12°C° 0 mm 3 mps 757 mmHg 45%
    09:00 +13°C° 0 mm 3 mps 757 mmHg 40%
    10:00 +14°C° 0 mm 4 mps 757 mmHg 34%
    11:00 +17°C° 0 mm 4 mps 757 mmHg 29%
    12:00 +17°C° 0 mm 4 mps 757 mmHg 29%
    13:00 +17°C° 0 mm 4 mps 756 mmHg 30%
    14:00 +17°C° 0 mm 3 mps 756 mmHg 30%
    15:00 +17°C° 0 mm 3 mps 756 mmHg 32%
    16:00 +16°C° 0 mm 3 mps 756 mmHg 34%
    17:00 +16°C° 0 mm 2 mps 756 mmHg 36%
    18:00 +15°C° 0 mm 2 mps 757 mmHg 38%
    19:00 +14°C° 0 mm 2 mps 757 mmHg 41%
    20:00 +13°C° 0 mm 1 mps 757 mmHg 43%
    21:00 +13°C° 0 mm 2 mps 757 mmHg 44%
    22:00 +13°C° 0 mm 2 mps 757 mmHg 45%
    23:00 +12°C° 0 mm 2 mps 758 mmHg 46%

    Tomorrow, 23 April, Tuesday

    Time Temperature Precipitation Wind Pressure Humidity
    00:00 +12°C° 0 mm 2 mps 758 mmHg 47%
    01:00 +12°C° 0 mm 2 mps 758 mmHg 49%
    02:00 +12°C° 0 mm 2 mps 758 mmHg 50%
    03:00 +12°C° 0 mm 2 mps 758 mmHg 52%
    04:00 +12°C° 0 mm 1 mps 758 mmHg 53%
    05:00 +11°C° 0 mm 1 mps 758 mmHg 55%
    06:00 +13°C° 0 mm 1 mps 759 mmHg 52%
    07:00 +14°C° 0 mm 1 mps 759 mmHg 50%
    08:00 +15°C° 0 mm 1 mps 759 mmHg 48%
    09:00 +16°C° 0 mm 1 mps 759 mmHg 44%
    10:00 +16°C° 0 mm 2 mps 759 mmHg 41%
    11:00 +17°C° 0 mm 2 mps 759 mmHg 37%
    12:00 +17°C° 0 mm 2 mps 759 mmHg 37%
    13:00 +19°C° 0 mm 1 mps 759 mmHg 37%
    14:00 +19°C° 0 mm 1 mps 759 mmHg 37%
    15:00 +19°C° 0 mm 1 mps 759 mmHg 37%
    16:00 +19°C° 0 mm 1 mps 758 mmHg 38%
    17:00 +16°C° 0 mm 0 mps 758 mmHg 39%
    18:00 +15°C° 0 mm 0 mps 758 mmHg 42%
    19:00 +14°C° 0 mm 0 mps 759 mmHg 45%
    20:00 +13°C° 0 mm 0 mps 759 mmHg 47%
    21:00 +13°C° 0 mm 0 mps 759 mmHg 49%
    22:00 +14°C° 0 mm 1 mps 759 mmHg 50%
    23:00 +13°C° 0 mm 1 mps 759 mmHg 51%

    Day after tomorrow, 24 April, Wednesday

    Time Temperature Precipitation Wind Pressure Humidity
    00:00 +13°C° 0 mm 1 mps 759 mmHg 52%
    01:00 +13°C° 0 mm 1 mps 759 mmHg 54%
    02:00 +12°C° 0 mm 1 mps 759 mmHg 55%
    03:00 +12°C° 0 mm 1 mps 759 mmHg 58%
    04:00 +12°C° 0 mm 1 mps 760 mmHg 60%
    05:00 +11°C° 0 mm 1 mps 760 mmHg 62%
    06:00 +13°C° 0 mm 1 mps 760 mmHg 57%
    07:00 +15°C° 0 mm 1 mps 760 mmHg 52%
    08:00 +16°C° 0 mm 1 mps 760 mmHg 48%
    09:00 +17°C° 0 mm 2 mps 760 mmHg 43%
    10:00 +18°C° 0 mm 2 mps 759 mmHg 39%
    11:00 +19°C° 0 mm 2 mps 759 mmHg 34%
    12:00 +19°C° 0 mm 2 mps 759 mmHg 33%
    13:00 +21°C° 0 mm 1 mps 759 mmHg 33%
    14:00 +21°C° 0 mm 1 mps 759 mmHg 32%
    15:00 +21°C° 0 mm 1 mps 759 mmHg 33%
    16:00 +21°C° 0 mm 1 mps 758 mmHg 35%
    17:00 +21°C° 0 mm 1 mps 758 mmHg 36%
    18:00 +19°C° 0 mm 1 mps 758 mmHg 41%
    19:00 +18°C° 0 mm 1 mps 758 mmHg 46%
    20:00 +16°C° 0 mm 1 mps 758 mmHg 50%
    21:00 +15°C° 0 mm 1 mps 758 mmHg 53%
    22:00 +14°C° 0 mm 1 mps 758 mmHg 57%
    23:00 +13°C° 0 mm 1 mps 758 mmHg 60%

    25 April, Thursday

    Time Temperature Precipitation Wind Pressure Humidity
    00:00 +13°C° 0 mm 1 mps 758 mmHg 61%
    01:00 +13°C° 0 mm 1 mps 759 mmHg 63%
    02:00 +13°C° 0 mm 1 mps 759 mmHg 64%
    03:00 +13°C° 0 mm 1 mps 759 mmHg 65%
    04:00 +13°C° 0 mm 2 mps 759 mmHg 65%
    05:00 +13°C° 0 mm 2 mps 759 mmHg 66%
    06:00 +14°C° 0 mm 2 mps 759 mmHg 62%
    07:00 +16°C° 0 mm 2 mps 759 mmHg 57%
    08:00 +18°C° 0 mm 2 mps 759 mmHg 53%
    09:00 +19°C° 0 mm 2 mps 759 mmHg 49%
    10:00 +20°C° 0 mm 2 mps 759 mmHg 46%
    11:00 +21°C° 0 mm 2 mps 759 mmHg 42%
    12:00 +21°C° 0 mm 2 mps 758 mmHg 42%
    13:00 +22°C° 0 mm 1 mps 758 mmHg 43%
    14:00 +22°C° 0 mm 1 mps 758 mmHg 44%
    15:00 +22°C° 0 mm 1 mps 758 mmHg 46%
    16:00 +22°C° 0 mm 1 mps 757 mmHg 48%
    17:00 +22°C° 0 mm 1 mps 757 mmHg 51%
    18:00 +19°C° 0 mm 2 mps 757 mmHg 53%
    19:00 +18°C° 0 mm 2 mps 757 mmHg 56%
    20:00 +17°C° 0 mm 2 mps 757 mmHg 59%
    21:00 +16°C° 0 mm 2 mps 757 mmHg 60%
    22:00 +16°C° 0 mm 2 mps 757 mmHg 61%
    23:00 +15°C° 0 mm 2 mps 757 mmHg 62%

    26 April, Friday

    Time Temperature Precipitation Wind Pressure Humidity
    00:00 +15°C° 0 mm 2 mps 757 mmHg 63%
    01:00 +15°C° 0 mm 2 mps 757 mmHg 63%
    02:00 +15°C° 0 mm 2 mps 757 mmHg 63%
    03:00 +15°C° 0 mm 2 mps 757 mmHg 64%
    04:00 +15°C° 0 mm 2 mps 757 mmHg 65%
    05:00 +15°C° 0 mm 2 mps 757 mmHg 67%
    06:00 +16°C° 0 mm 2 mps 757 mmHg 65%
    07:00 +18°C° 0 mm 1 mps 757 mmHg 63%
    08:00 +19°C° 0 mm 1 mps 757 mmHg 61%
    09:00 +20°C° 0 mm 1 mps 756 mmHg 55%
    10:00 +22°C° 0 mm 1 mps 756 mmHg 48%
    11:00 +24°C° 0 mm 1 mps 756 mmHg 42%
    12:00 +24°C° 0 mm 1 mps 756 mmHg 41%
    13:00 +24°C° 0 mm 1 mps 756 mmHg 40%
    14:00 +24°C° 0 mm 1 mps 755 mmHg 39%
    15:00 +23°C° 0 mm 1 mps 755 mmHg 43%
    16:00 +23°C° 0 mm 1 mps 755 mmHg 47%
    17:00 +22°C° 0 mm 1 mps 754 mmHg 51%
    18:00 +21°C° 0 mm 1 mps 754 mmHg 52%
    19:00 +21°C° 0 mm 1 mps 754 mmHg 53%
    20:00 +18°C° 0 mm 0 mps 754 mmHg 53%
    21:00 +18°C° 0 mm 0 mps 754 mmHg 54%
    22:00 +17°C° 0 mm 0 mps 754 mmHg 55%
    23:00 +17°C° 0 mm 0 mps 754 mmHg 55%

    27 April, Saturday

    Time Temperature Precipitation Wind Pressure Humidity
    00:00 +17°C° 0 mm 0 mps 754 mmHg 57%
    01:00 +16°C° 0 mm 0 mps 754 mmHg 58%
    02:00 +16°C° 0 mm 0 mps 753 mmHg 59%
    03:00 +16°C° 0 mm 1 mps 753 mmHg 61%
    04:00 +16°C° 0 mm 1 mps 753 mmHg 63%
    05:00 +16°C° 0 mm 1 mps 753 mmHg 65%
    06:00 +18°C° 0 mm 1 mps 753 mmHg 60%
    07:00 +20°C° 0 mm 1 mps 754 mmHg 55%
    08:00 +21°C° 0 mm 2 mps 754 mmHg 50%
    09:00 +21°C° 0 mm 2 mps 754 mmHg 45%
    10:00 +23°C° 0 mm 2 mps 753 mmHg 40%
    11:00 +24°C° 0 mm 2 mps 753 mmHg 35%
    12:00 +24°C° 0 mm 2 mps 753 mmHg 36%
    13:00 +24°C° 0 mm 1 mps 753 mmHg 36%
    14:00 +24°C° 0 mm 1 mps 752 mmHg 36%
    15:00 +23°C° 0 mm 1 mps 752 mmHg 40%
    16:00 +22°C° 0 mm 1 mps 752 mmHg 44%
    17:00 +21°C° 0 mm 2 mps 752 mmHg 48%
    18:00 +21°C° 0 mm 1 mps 752 mmHg 51%
    19:00 +20°C° 0 mm 1 mps 752 mmHg 53%
    20:00 +20°C° 0 mm 1 mps 752 mmHg 55%
    21:00 +19°C° 0 mm 1 mps 752 mmHg 56%
    22:00 +17°C° 0 mm 0 mps 752 mmHg 57%
    23:00 +17°C° 0 mm 0 mps 752 mmHg 58%
    Show more